| time (UTC) | temp F | wind direction | speed MPH | gust MPH | rain 1hr in | rain 24hr in | rain mn in | humidity % | barometer mb |
| 20260509162512 | 67 | 271 | 2.0 | 13.0 | 0.00 | 0.00 | 0.00 | 56 | 1004.5 |
| 20260509162011 | 67 | 277 | 7.0 | 13.0 | 0.00 | 0.00 | 0.00 | 56 | 1004.4 |
| 20260509161525 | 67 | 222 | 6.0 | 12.0 | 0.00 | 0.00 | 0.00 | 56 | 1004.6 |
| 20260509161514 | 80 | 269 | 5.0 | 9.0 | 0.00 | 0.03 | 0.02 | 42 | 1011.8 |
| 20260509161010 | 66 | 231 | 4.0 | 12.0 | 0.00 | 0.00 | 0.00 | 57 | 1004.6 |
| 20260509160504 | 66 | 274 | 4.0 | 9.0 | 0.00 | 0.00 | 0.00 | 59 | 1004.6 |
| 20260509160012 | 66 | 288 | 3.0 | 9.0 | 0.00 | 0.00 | 0.00 | 60 | 1004.5 |
| 20260509160010 | 80 | 278 | 2.0 | 8.0 | 0.00 | 0.03 | 0.02 | 39 | 1011.8 |
| 20260509155503 | 66 | 186 | 4.0 | 9.0 | 0.00 | 0.00 | 0.00 | 61 | 1004.4 |
| 20260509155004 | 65 | 202 | 5.0 | 9.0 | 0.00 | 0.00 | 0.00 | 61 | 1004.4 |
| 20260509154520 | 65 | 225 | 4.0 | 12.0 | 0.00 | 0.00 | 0.00 | 62 | 1004.4 |
| 20260509154508 | 79 | 276 | 3.0 | 7.0 | 0.00 | 0.03 | 0.02 | 16 | 1011.9 |
| 20260509154007 | 65 | 273 | 6.0 | 12.0 | 0.00 | 0.00 | 0.00 | 62 | 1004.4 |
| 20260509153507 | 64 | 171 | 5.0 | 13.0 | 0.00 | 0.00 | 0.00 | 62 | 1004.5 |
| 20260509153019 | 64 | 207 | 6.0 | 13.0 | 0.00 | 0.00 | 0.00 | 63 | 1004.5 |
| 20260509153004 | 78 | 290 | 2.0 | 6.0 | 0.00 | 0.03 | 0.02 | 19 | 1011.9 |
| 20260509152507 | 64 | 254 | 6.0 | 11.0 | 0.00 | 0.00 | 0.00 | 64 | 1004.3 |
| 20260509152006 | 64 | 234 | 5.0 | 11.0 | 0.00 | 0.00 | 0.00 | 66 | 1004.4 |
| 20260509151614 | 77 | 293 | 3.0 | 7.0 | 0.00 | 0.03 | 0.02 | 17 | 1011.8 |
| 20260509151526 | 63 | 237 | 4.0 | 12.0 | 0.00 | 0.00 | 0.00 | 67 | 1004.5 |
| 20260509151007 | 63 | 188 | 6.0 | 12.0 | 0.00 | 0.00 | 0.00 | 66 | 1004.5 |
| 20260509150510 | 63 | 214 | 5.0 | 11.0 | 0.00 | 0.00 | 0.00 | 67 | 1004.5 |
| 20260509150056 | 77 | 277 | 3.0 | 7.0 | 0.00 | 0.03 | 0.02 | 18 | 1011.8 |
| 20260509150027 | 63 | 252 | 3.0 | 12.0 | 0.00 | 0.00 | 0.00 | 67 | 1004.5 |
| 20260509145505 | 62 | 235 | 4.0 | 12.0 | 0.00 | 0.00 | 0.00 | 68 | 1004.5 |
| 20260509145004 | 62 | 217 | 5.0 | 14.0 | 0.00 | 0.00 | 0.00 | 69 | 1004.6 |
| 20260509144552 | 76 | 298 | 5.0 | 7.0 | 0.00 | 0.03 | 0.02 | 20 | 1011.7 |
| 20260509144512 | 62 | 244 | 7.0 | 14.0 | 0.00 | 0.00 | 0.00 | 69 | 1004.5 |
| 20260509144003 | 62 | 234 | 4.0 | 12.0 | 0.00 | 0.00 | 0.00 | 71 | 1004.5 |
| 20260509143503 | 61 | 232 | 5.0 | 13.0 | 0.00 | 0.00 | 0.00 | 71 | 1004.5 |
| 20260509143057 | 75 | 289 | 3.0 | 7.0 | 0.00 | 0.03 | 0.02 | 20 | 1011.8 |
| 20260509143021 | 61 | 194 | 5.0 | 13.0 | 0.00 | 0.00 | 0.00 | 72 | 1004.5 |
| 20260509142508 | 61 | 257 | 7.0 | 11.0 | 0.00 | 0.00 | 0.00 | 72 | 1004.5 |
| 20260509142007 | 61 | 254 | 4.0 | 11.0 | 0.00 | 0.00 | 0.00 | 73 | 1004.5 |
| 20260509141546 | 75 | 289 | 4.0 | 7.0 | 0.00 | 0.03 | 0.02 | 25 | 1011.9 |
| 20260509141522 | 60 | 219 | 6.0 | 12.0 | 0.00 | 0.00 | 0.00 | 73 | 1004.5 |
| 20260509141007 | 60 | 263 | 5.0 | 12.0 | 0.00 | 0.00 | 0.00 | 73 | 1004.3 |
| 20260509140507 | 60 | 205 | 4.0 | 12.0 | 0.00 | 0.00 | 0.00 | 73 | 1004.3 |
| 20260509140039 | 74 | 283 | 3.0 | 6.0 | 0.00 | 0.03 | 0.02 | 26 | 1011.9 |
| 20260509140026 | 60 | 208 | 6.0 | 16.0 | 0.00 | 0.00 | 0.00 | 73 | 1004.4 |
| 20260509135514 | 60 | 260 | 5.0 | 16.0 | 0.00 | 0.00 | 0.00 | 73 | 1004.5 |
| 20260509135012 | 60 | 192 | 4.0 | 10.0 | 0.00 | 0.00 | 0.00 | 75 | 1004.4 |
| 20260509134534 | 73 | 269 | 0.0 | 4.0 | 0.00 | 0.03 | 0.02 | 31 | 1012.0 |
| 20260509134526 | 60 | 259 | 3.0 | 10.0 | 0.00 | 0.00 | 0.00 | 76 | 1004.2 |
| 20260509134003 | 59 | 188 | 4.0 | 11.0 | 0.00 | 0.00 | 0.00 | 77 | 1004.0 |
| 20260509133505 | 59 | 188 | 3.0 | 12.0 | 0.00 | 0.00 | 0.00 | 78 | 1004.0 |
| 20260509133029 | 72 | 281 | 1.0 | 4.0 | 0.00 | 0.03 | 0.02 | 35 | 1011.7 |
| 20260509133017 | 58 | 178 | 4.0 | 12.0 | 0.00 | 0.00 | 0.00 | 80 | 1004.2 |
| 20260509132507 | 58 | 191 | 4.0 | 15.0 | 0.00 | 0.00 | 0.00 | 80 | 1004.2 |
| 20260509132007 | 58 | 250 | 5.0 | 15.0 | 0.00 | 0.00 | 0.00 | 81 | 1004.5 |
| 20260509131529 | 71 | 259 | 0.0 | 2.0 | 0.00 | 0.03 | 0.02 | 36 | 1011.3 |
| 20260509131519 | 57 | 231 | 7.0 | 15.0 | 0.00 | 0.00 | 0.00 | 82 | 1004.6 |
| 20260509131008 | 57 | 227 | 7.0 | 14.0 | 0.00 | 0.00 | 0.00 | 83 | 1004.6 |
| 20260509130507 | 57 | 271 | 6.0 | 12.0 | 0.00 | 0.00 | 0.00 | 84 | 1004.5 |
| 20260509130046 | 56 | 274 | 3.0 | 11.0 | 0.00 | 0.00 | 0.00 | 85 | 1004.4 |
| 20260509130025 | 71 | 272 | 1.0 | 4.0 | 0.00 | 0.03 | 0.02 | 36 | 1011.1 |
| 20260509125505 | 56 | 244 | 4.0 | 11.0 | 0.00 | 0.00 | 0.00 | 85 | 1004.4 |
| 20260509125007 | 56 | 205 | 6.0 | 11.0 | 0.00 | 0.00 | 0.00 | 87 | 1004.4 |
| 20260509124531 | 55 | 225 | 4.0 | 10.0 | 0.00 | 0.00 | 0.00 | 87 | 1004.3 |
| 20260509124520 | 70 | 333 | 0.0 | 5.0 | 0.00 | 0.03 | 0.02 | 39 | 1010.6 |
| 20260509124004 | 55 | 212 | 4.0 | 15.0 | 0.00 | 0.00 | 0.00 | 88 | 1004.3 |
| 20260509123504 | 54 | 207 | 5.0 | 15.0 | 0.00 | 0.00 | 0.00 | 88 | 1004.3 |
| 20260509123017 | 68 | 41 | 1.0 | 5.0 | 0.00 | 0.03 | 0.02 | 41 | 1010.3 |
| 20260509123013 | 54 | 202 | 3.0 | 12.0 | 0.00 | 0.00 | 0.00 | 89 | 1004.2 |
| 20260509122503 | 54 | 210 | 5.0 | 12.0 | 0.00 | 0.00 | 0.00 | 89 | 1004.3 |
| 20260509122007 | 54 | 284 | 3.0 | 10.0 | 0.00 | 0.00 | 0.00 | 89 | 1004.2 |
| 20260509121520 | 54 | 219 | 3.0 | 11.0 | 0.00 | 0.00 | 0.00 | 89 | 1004.2 |
| 20260509121514 | 68 | 347 | 0.0 | 5.0 | 0.00 | 0.03 | 0.02 | 42 | 1010.2 |
| 20260509121007 | 53 | 232 | 5.0 | 11.0 | 0.00 | 0.00 | 0.00 | 90 | 1004.2 |
| 20260509120507 | 53 | 223 | 2.0 | 10.0 | 0.00 | 0.00 | 0.00 | 90 | 1004.2 |
| 20260509120030 | 53 | 246 | 4.0 | 10.0 | 0.00 | 0.00 | 0.00 | 90 | 1004.2 |
| 20260509120019 | 0 | 0.0 | 0.0 | 0.00 | 0.03 | 0.02 | 1010.0 | ||
| 20260509115505 | 53 | 207 | 2.0 | 10.0 | 0.00 | 0.00 | 0.00 | 90 | 1004.2 |
| 20260509115005 | 53 | 200 | 4.0 | 7.0 | 0.00 | 0.00 | 0.00 | 90 | 1004.2 |
| 20260509114605 | 0 | 0.0 | 0.0 | 0.00 | 0.03 | 0.02 | 1010.0 | ||
| 20260509114507 | 53 | 207 | 3.0 | 7.0 | 0.00 | 0.00 | 0.00 | 90 | 1004.1 |
| 20260509114004 | 53 | 186 | 2.0 | 9.0 | 0.00 | 0.00 | 0.00 | 90 | 1004.0 |
| 20260509113504 | 53 | 221 | 4.0 | 9.0 | 0.00 | 0.00 | 0.00 | 89 | 1004.0 |
| 20260509113101 | 0 | 0.0 | 0.0 | 0.00 | 0.03 | 0.02 | 1009.8 | ||
| 20260509113011 | 53 | 179 | 2.0 | 6.0 | 0.00 | 0.00 | 0.00 | 89 | 1004.0 |
| 20260509112503 | 53 | 180 | 2.0 | 7.0 | 0.00 | 0.00 | 0.00 | 89 | 1004.0 |
| 20260509112003 | 53 | 205 | 2.0 | 7.0 | 0.00 | 0.00 | 0.00 | 89 | 1003.9 |
| 20260509111559 | 0 | 270 | 1.0 | 5.0 | 0.00 | 0.03 | 0.02 | 41 | 1009.2 |
| 20260509111515 | 53 | 197 | 1.0 | 7.0 | 0.00 | 0.00 | 0.00 | 89 | 1003.9 |
| 20260509111004 | 53 | 212 | 1.0 | 7.0 | 0.00 | 0.00 | 0.00 | 89 | 1003.9 |
| 20260509110508 | 53 | 227 | 3.0 | 12.0 | 0.00 | 0.00 | 0.00 | 89 | 1004.0 |
| 20260509110052 | 69 | 270 | 1.0 | 5.0 | 0.00 | 0.03 | 0.02 | 41 | 1009.1 |
| 20260509110024 | 53 | 238 | 3.0 | 12.0 | 0.00 | 0.00 | 0.00 | 89 | 1003.9 |
| 20260509105508 | 53 | 238 | 2.0 | 7.0 | 0.00 | 0.00 | 0.00 | 89 | 1003.6 |
| 20260509105008 | 53 | 170 | 2.0 | 7.0 | 0.00 | 0.00 | 0.00 | 89 | 1003.6 |
| 20260509104606 | 68 | 245 | 1.0 | 7.0 | 0.00 | 0.03 | 0.02 | 42 | 1008.8 |
| 20260509104524 | 53 | 165 | 3.0 | 8.0 | 0.00 | 0.00 | 0.00 | 89 | 1003.7 |
| 20260509104009 | 53 | 210 | 3.0 | 8.0 | 0.00 | 0.00 | 0.00 | 89 | 1003.6 |
| 20260509103510 | 53 | 188 | 2.0 | 8.0 | 0.00 | 0.00 | 0.00 | 89 | 1003.6 |
| 20260509103053 | 68 | 254 | 1.0 | 6.0 | 0.00 | 0.03 | 0.02 | 44 | 1008.2 |
| 20260509103014 | 53 | 237 | 3.0 | 8.0 | 0.00 | 0.00 | 0.00 | 89 | 1003.6 |
| 20260509102505 | 53 | 205 | 2.0 | 6.0 | 0.00 | 0.00 | 0.00 | 89 | 1003.5 |
| 20260509102004 | 53 | 187 | 3.0 | 6.0 | 0.00 | 0.00 | 0.00 | 89 | 1003.5 |
| 20260509101544 | 68 | 172 | 1.0 | 6.0 | 0.00 | 0.03 | 0.02 | 44 | 1008.4 |
| 20260509101515 | 53 | 205 | 2.0 | 6.0 | 0.00 | 0.00 | 0.00 | 89 | 1003.4 |
| 20260509101004 | 53 | 217 | 3.0 | 6.0 | 0.00 | 0.00 | 0.00 | 89 | 1003.5 |
| 20260509100503 | 53 | 208 | 1.0 | 6.0 | 0.00 | 0.00 | 0.00 | 89 | 1003.6 |
| 20260509100040 | 67 | 190 | 0.0 | 4.0 | 0.00 | 0.03 | 0.02 | 44 | 1009.7 |
| 20260509100022 | 53 | 182 | 2.0 | 6.0 | 0.00 | 0.00 | 0.00 | 89 | 1003.7 |
| 20260509095508 | 53 | 210 | 2.0 | 6.0 | 0.00 | 0.00 | 0.00 | 89 | 1003.8 |
| 20260509095010 | 53 | 213 | 1.0 | 6.0 | 0.00 | 0.00 | 0.00 | 89 | 1003.9 |
| 20260509094538 | 67 | 208 | 0.0 | 1.0 | 0.00 | 0.03 | 0.02 | 44 | 1010.0 |
| 20260509094521 | 53 | 163 | 2.0 | 6.0 | 0.00 | 0.00 | 0.00 | 89 | 1004.0 |
| 20260509094007 | 53 | 212 | 2.0 | 6.0 | 0.00 | 0.00 | 0.00 | 89 | 1004.2 |
| 20260509093508 | 53 | 157 | 2.0 | 7.0 | 0.00 | 0.00 | 0.00 | 89 | 1004.2 |
| 20260509093034 | 67 | 186 | 0.0 | 14.0 | 0.01 | 0.03 | 0.02 | 44 | 1009.8 |
| 20260509093024 | 53 | 217 | 2.0 | 8.0 | 0.00 | 0.00 | 0.00 | 89 | 1004.3 |
| 20260509092516 | 53 | 259 | 3.0 | 8.0 | 0.00 | 0.00 | 0.00 | 89 | 1004.3 |
| 20260509092003 | 53 | 209 | 2.0 | 10.0 | 0.00 | 0.00 | 0.00 | 89 | 1004.3 |
| 20260509091531 | 67 | 116 | 3.0 | 5.0 | 0.02 | 0.03 | 0.02 | 44 | 1009.7 |
| 20260509091510 | 53 | 199 | 3.0 | 10.0 | 0.00 | 0.00 | 0.00 | 89 | 1004.4 |
| 20260509091004 | 53 | 227 | 3.0 | 9.0 | 0.00 | 0.00 | 0.00 | 89 | 1004.4 |
| 20260509090504 | 53 | 231 | 2.0 | 6.0 | 0.00 | 0.00 | 0.00 | 88 | 1004.3 |
| 20260509090032 | 67 | 158 | 1.0 | 3.0 | 0.02 | 0.03 | 0.02 | 43 | 1010.2 |
| 20260509090018 | 53 | 203 | 3.0 | 6.0 | 0.00 | 0.00 | 0.00 | 88 | 1004.2 |
| 20260509085506 | 53 | 234 | 3.0 | 6.0 | 0.00 | 0.00 | 0.00 | 88 | 1004.2 |
| 20260509085006 | 53 | 174 | 3.0 | 9.0 | 0.00 | 0.00 | 0.00 | 88 | 1004.4 |
| 20260509084527 | 53 | 236 | 3.0 | 9.0 | 0.00 | 0.00 | 0.00 | 88 | 1004.4 |
| 20260509084522 | 67 | 257 | 0.0 | 1.0 | 0.02 | 0.03 | 0.02 | 43 | 1011.6 |
| 20260509084011 | 53 | 172 | 2.0 | 9.0 | 0.00 | 0.00 | 0.00 | 87 | 1004.5 |
| 20260509083506 | 53 | 182 | 2.0 | 7.0 | 0.00 | 0.00 | 0.00 | 87 | 1004.5 |
| 20260509083033 | 53 | 215 | 2.0 | 7.0 | 0.00 | 0.00 | 0.00 | 87 | 1004.4 |
| 20260509083020 | 67 | 58 | 0.0 | 0.0 | 0.01 | 0.02 | 0.01 | 43 | 1011.8 |
| 20260509082511 | 53 | 204 | 1.0 | 7.0 | 0.00 | 0.00 | 0.00 | 87 | 1004.4 |
| 20260509082010 | 53 | 222 | 2.0 | 8.0 | 0.00 | 0.00 | 0.00 | 87 | 1004.4 |
| 20260509081529 | 53 | 180 | 2.0 | 8.0 | 0.00 | 0.00 | 0.00 | 86 | 1004.3 |
| 20260509081524 | 67 | 58 | 0.0 | 3.0 | 0.00 | 0.01 | 0.00 | 43 | 1012.4 |
| 20260509081008 | 53 | 198 | 2.0 | 6.0 | 0.00 | 0.00 | 0.00 | 86 | 1004.3 |
| 20260509080504 | 53 | 244 | 2.0 | 5.0 | 0.00 | 0.00 | 0.00 | 86 | 1004.4 |
| 20260509080014 | 67 | 330 | 3.0 | 8.0 | 0.00 | 0.01 | 0.00 | 44 | 1012.9 |
| 20260509080012 | 53 | 233 | 2.0 | 7.0 | 0.00 | 0.00 | 0.00 | 86 | 1004.4 |
| 20260509075504 | 53 | 221 | 2.0 | 7.0 | 0.00 | 0.00 | 0.00 | 85 | 1004.4 |
| 20260509075006 | 54 | 186 | 1.0 | 7.0 | 0.00 | 0.00 | 0.00 | 85 | 1004.5 |
| 20260509074518 | 54 | 240 | 2.0 | 7.0 | 0.00 | 0.00 | 0.00 | 85 | 1004.5 |
| 20260509074512 | 67 | 312 | 2.0 | 7.0 | 0.00 | 0.01 | 0.00 | 44 | 1012.8 |
| 20260509074007 | 54 | 209 | 2.0 | 5.0 | 0.00 | 0.00 | 0.00 | 85 | 1004.6 |
| 20260509073508 | 54 | 177 | 1.0 | 6.0 | 0.00 | 0.00 | 0.00 | 84 | 1004.7 |
| 20260509073023 | 66 | 2 | 0.0 | 4.0 | 0.00 | 0.01 | 0.00 | 44 | 1013.1 |
| 20260509072508 | 54 | 224 | 2.0 | 7.0 | 0.00 | 0.00 | 0.00 | 84 | 1004.7 |
| 20260509072009 | 54 | 200 | 1.0 | 7.0 | 0.00 | 0.00 | 0.00 | 84 | 1004.7 |
| 20260509071524 | 54 | 199 | 2.0 | 7.0 | 0.00 | 0.00 | 0.00 | 84 | 1004.8 |
| 20260509071506 | 66 | 307 | 0.0 | 2.0 | 0.00 | 0.01 | 0.00 | 44 | 1013.0 |
| 20260509071010 | 55 | 196 | 1.0 | 5.0 | 0.00 | 0.00 | 0.00 | 83 | 1004.9 |
| 20260509070506 | 55 | 212 | 3.0 | 9.0 | 0.00 | 0.00 | 0.00 | 83 | 1004.9 |
| 20260509070028 | 55 | 234 | 4.0 | 9.0 | 0.00 | 0.00 | 0.00 | 83 | 1005.2 |
| 20260509070003 | 64 | 307 | 0.0 | 3.0 | 0.00 | 0.01 | 0.00 | 40 | 1012.5 |
| 20260509065507 | 55 | 225 | 2.0 | 7.0 | 0.00 | 0.00 | 0.00 | 83 | 1005.2 |
| 20260509065004 | 55 | 227 | 2.0 | 8.0 | 0.00 | 0.00 | 0.00 | 83 | 1005.3 |
| 20260509064602 | 65 | 148 | 0.0 | 0.0 | 0.00 | 0.01 | 0.00 | 40 | 1011.3 |
| 20260509064520 | 55 | 222 | 2.0 | 8.0 | 0.00 | 0.00 | 0.00 | 82 | 1005.3 |
| 20260509064003 | 55 | 209 | 3.0 | 9.0 | 0.00 | 0.00 | 0.00 | 82 | 1005.4 |
| 20260509063503 | 55 | 249 | 3.0 | 9.0 | 0.00 | 0.00 | 0.00 | 82 | 1005.4 |
| 20260509063110 | 65 | 148 | 0.0 | 0.0 | 0.00 | 0.01 | 0.00 | 40 | 1010.9 |
| 20260509063019 | 55 | 208 | 4.0 | 8.0 | 0.00 | 0.00 | 0.00 | 82 | 1005.4 |
| 20260509062511 | 56 | 186 | 3.0 | 11.0 | 0.00 | 0.00 | 0.00 | 82 | 1005.5 |
| 20260509062008 | 56 | 220 | 4.0 | 11.0 | 0.00 | 0.00 | 0.00 | 82 | 1005.5 |
| 20260509061615 | 65 | 148 | 0.0 | 0.0 | 0.00 | 0.01 | 0.00 | 40 | 1011.5 |
| 20260509061525 | 56 | 242 | 4.0 | 9.0 | 0.00 | 0.00 | 0.00 | 81 | 1005.5 |
| 20260509061010 | 56 | 232 | 3.0 | 10.0 | 0.00 | 0.00 | 0.00 | 81 | 1005.5 |
| 20260509060508 | 56 | 212 | 4.0 | 10.0 | 0.00 | 0.00 | 0.00 | 81 | 1005.6 |
| 20260509060058 | 65 | 148 | 0.0 | 0.0 | 0.00 | 0.01 | 0.00 | 37 | 1011.6 |
| 20260509060025 | 56 | 212 | 3.0 | 10.0 | 0.00 | 0.00 | 0.00 | 81 | 1005.6 |
| 20260509055506 | 56 | 198 | 4.0 | 12.0 | 0.00 | 0.00 | 0.00 | 81 | 1005.7 |
| 20260509055008 | 56 | 233 | 5.0 | 12.0 | 0.00 | 0.00 | 0.00 | 81 | 1005.7 |
| 20260509054546 | 65 | 148 | 0.0 | 0.0 | 0.00 | 0.01 | 0.00 | 37 | 1011.5 |
| 20260509054528 | 57 | 216 | 2.0 | 9.0 | 0.00 | 0.00 | 0.00 | 80 | 1005.7 |
| 20260509054008 | 57 | 214 | 3.0 | 10.0 | 0.00 | 0.00 | 0.00 | 80 | 1005.7 |
| 20260509053504 | 57 | 195 | 4.0 | 10.0 | 0.00 | 0.00 | 0.00 | 80 | 1005.7 |
| 20260509053044 | 65 | 149 | 0.0 | 0.0 | 0.00 | 0.01 | 0.00 | 37 | 1011.3 |
| 20260509053022 | 57 | 219 | 4.0 | 9.0 | 0.00 | 0.00 | 0.00 | 79 | 1005.7 |
| 20260509052504 | 57 | 181 | 3.0 | 9.0 | 0.00 | 0.00 | 0.00 | 79 | 1005.8 |
| 20260509052008 | 57 | 190 | 5.0 | 9.0 | 0.00 | 0.00 | 0.00 | 78 | 1005.8 |
| 20260509051541 | 66 | 149 | 0.0 | 0.0 | 0.00 | 0.01 | 0.00 | 37 | 1011.1 |
| 20260509051523 | 58 | 200 | 2.0 | 8.0 | 0.00 | 0.00 | 0.00 | 77 | 1005.8 |
| 20260509051007 | 58 | 163 | 2.0 | 7.0 | 0.00 | 0.00 | 0.00 | 77 | 1005.6 |
| 20260509050508 | 58 | 226 | 1.0 | 8.0 | 0.00 | 0.00 | 0.00 | 76 | 1005.7 |
| 20260509050039 | 58 | 179 | 2.0 | 10.0 | 0.00 | 0.00 | 0.00 | 76 | 1005.7 |
| 20260509050034 | 67 | 149 | 0.0 | 0.0 | 0.00 | 0.01 | 0.00 | 37 | 1011.0 |
| 20260509045508 | 58 | 176 | 2.0 | 10.0 | 0.00 | 0.00 | 0.00 | 75 | 1005.7 |
| 20260509045010 | 58 | 219 | 3.0 | 8.0 | 0.00 | 0.00 | 0.00 | 74 | 1005.6 |
| 20260509044533 | 68 | 149 | 0.0 | 0.0 | 0.00 | 0.01 | 0.01 | 37 | 1010.9 |
| 20260509044527 | 58 | 186 | 3.0 | 8.0 | 0.00 | 0.00 | 0.00 | 74 | 1005.7 |
| 20260509044007 | 58 | 172 | 2.0 | 8.0 | 0.00 | 0.00 | 0.00 | 74 | 1005.7 |
| 20260509043507 | 58 | 180 | 3.0 | 11.0 | 0.00 | 0.00 | 0.00 | 73 | 1005.6 |
| 20260509043032 | 68 | 134 | 0.0 | 1.0 | 0.00 | 0.01 | 0.01 | 37 | 1011.1 |
| 20260509042508 | 59 | 198 | 2.0 | 8.0 | 0.00 | 0.00 | 0.00 | 73 | 1005.7 |
| 20260509042007 | 59 | 178 | 3.0 | 10.0 | 0.00 | 0.00 | 0.00 | 73 | 1005.7 |
| 20260509041530 | 68 | 151 | 0.0 | 1.0 | 0.00 | 0.01 | 0.01 | 38 | 1011.3 |
| 20260509041522 | 59 | 201 | 4.0 | 10.0 | 0.00 | 0.00 | 0.00 | 72 | 1005.6 |
| 20260509041009 | 59 | 196 | 3.0 | 10.0 | 0.00 | 0.00 | 0.00 | 72 | 1005.7 |
| 20260509040510 | 59 | 209 | 4.0 | 10.0 | 0.00 | 0.00 | 0.00 | 72 | 1005.7 |
| 20260509040027 | 68 | 151 | 0.0 | 1.0 | 0.00 | 0.01 | 0.01 | 38 | 1011.4 |
| 20260509040025 | 59 | 174 | 5.0 | 11.0 | 0.00 | 0.00 | 0.00 | 71 | 1005.8 |
| 20260509035511 | 59 | 180 | 5.0 | 11.0 | 0.00 | 0.00 | 0.00 | 71 | 1005.9 |
| 20260509035009 | 59 | 241 | 3.0 | 11.0 | 0.00 | 0.00 | 0.00 | 70 | 1005.9 |
| 20260509034528 | 59 | 192 | 3.0 | 11.0 | 0.00 | 0.00 | 0.00 | 70 | 1005.9 |
| 20260509034526 | 68 | 151 | 0.0 | 0.0 | 0.00 | 0.01 | 0.01 | 38 | 1011.2 |
| 20260509034007 | 59 | 211 | 3.0 | 8.0 | 0.00 | 0.00 | 0.00 | 70 | 1005.9 |
| 20260509033507 | 59 | 201 | 3.0 | 8.0 | 0.00 | 0.00 | 0.00 | 70 | 1005.9 |
| 20260509033027 | 59 | 181 | 2.0 | 8.0 | 0.00 | 0.00 | 0.00 | 70 | 1005.9 |
| 20260509033023 | 68 | 151 | 0.0 | 0.0 | 0.00 | 0.01 | 0.01 | 39 | 1011.2 |
| 20260509032513 | 59 | 222 | 4.0 | 8.0 | 0.00 | 0.00 | 0.00 | 70 | 1005.9 |
| 20260509032013 | 59 | 145 | 3.0 | 7.0 | 0.00 | 0.00 | 0.00 | 71 | 1005.9 |
| 20260509031523 | 58 | 198 | 3.0 | 7.0 | 0.00 | 0.00 | 0.00 | 71 | 1005.9 |
| 20260509031521 | 68 | 151 | 0.0 | 0.0 | 0.00 | 0.01 | 0.01 | 39 | 1010.9 |
| 20260509031007 | 58 | 213 | 2.0 | 7.0 | 0.00 | 0.00 | 0.00 | 71 | 1005.9 |
| 20260509030508 | 58 | 175 | 3.0 | 7.0 | 0.00 | 0.00 | 0.00 | 71 | 1005.9 |
| 20260509030032 | 57 | 182 | 0.0 | 2.0 | 0.00 | 0.00 | 0.00 | 71 | 1005.9 |
| 20260509030022 | 67 | 151 | 0.0 | 0.0 | 0.00 | 0.01 | 0.01 | 40 | 1010.6 |
| 20260509030012 | 57 | 171 | 0.0 | 2.0 | 0.00 | 0.00 | 0.00 | 71 | 1005.9 |
| 20260509025503 | 58 | 167 | 0.0 | 1.0 | 0.00 | 0.00 | 0.00 | 72 | 1006.0 |
| 20260509025003 | 58 | 146 | 0.0 | 1.0 | 0.00 | 0.00 | 0.00 | 72 | 1005.9 |
| 20260509024518 | 68 | 151 | 0.0 | 0.0 | 0.00 | 0.01 | 0.01 | 40 | 1010.4 |
| 20260509024509 | 58 | 156 | 0.0 | 1.0 | 0.00 | 0.00 | 0.00 | 71 | 1005.9 |
| 20260509024003 | 58 | 111 | 0.0 | 1.0 | 0.00 | 0.00 | 0.00 | 70 | 1006.0 |
| 20260509023506 | 58 | 108 | 0.0 | 0.0 | 0.00 | 0.00 | 0.00 | 71 | 1006.0 |
| 20260509023114 | 67 | 151 | 0.0 | 0.0 | 0.00 | 0.01 | 0.01 | 39 | 1010.3 |
| 20260509023016 | 59 | 108 | 0.0 | 0.0 | 0.00 | 0.00 | 0.00 | 70 | 1006.0 |
| 20260509022503 | 59 | 108 | 0.0 | 1.0 | 0.00 | 0.00 | 0.00 | 70 | 1006.0 |
| 20260509022003 | 59 | 108 | 0.0 | 1.0 | 0.00 | 0.00 | 0.00 | 69 | 1006.0 |
| 20260509021514 | 59 | 108 | 0.0 | 0.0 | 0.00 | 0.00 | 0.00 | 68 | 1006.0 |
| 20260509021005 | 59 | 108 | 0.0 | 1.0 | 0.00 | 0.00 | 0.00 | 68 | 1006.0 |
| 20260509020508 | 59 | 108 | 0.0 | 1.0 | 0.00 | 0.00 | 0.00 | 68 | 1006.0 |
| 20260509020022 | 59 | 108 | 0.0 | 0.0 | 0.00 | 0.00 | 0.00 | 68 | 1006.0 |
| 20260509020020 | 70 | 151 | 0.0 | 0.0 | 0.00 | 0.01 | 0.01 | 36 | 1010.0 |
| 20260509015507 | 60 | 108 | 0.0 | 0.0 | 0.00 | 0.00 | 0.00 | 68 | 1006.0 |
| 20260509015007 | 60 | 108 | 0.0 | 1.0 | 0.00 | 0.00 | 0.00 | 68 | 1006.0 |
| 20260509014527 | 71 | 151 | 0.0 | 0.0 | 0.00 | 0.01 | 0.01 | 35 | 1009.7 |
| 20260509014505 | 60 | 108 | 0.0 | 1.0 | 0.00 | 0.00 | 0.00 | 66 | 1006.0 |
| 20260509014003 | 61 | 108 | 0.0 | 1.0 | 0.00 | 0.00 | 0.00 | 66 | 1005.9 |
| 20260509013503 | 61 | 108 | 0.0 | 1.0 | 0.00 | 0.00 | 0.00 | 65 | 1005.9 |
| 20260509013008 | 61 | 108 | 0.0 | 1.0 | 0.00 | 0.00 | 0.00 | 65 | 1005.9 |
| 20260509012505 | 61 | 108 | 0.0 | 1.0 | 0.00 | 0.00 | 0.00 | 64 | 1005.9 |
| 20260509012003 | 61 | 108 | 0.0 | 1.0 | 0.00 | 0.00 | 0.00 | 64 | 1005.9 |
| 20260509011512 | 61 | 111 | 0.0 | 1.0 | 0.00 | 0.00 | 0.00 | 64 | 1005.9 |
| 20260509011506 | 73 | 133 | 1.0 | 6.0 | 0.00 | 0.01 | 0.01 | 33 | 1009.2 |
| 20260509011005 | 61 | 111 | 0.0 | 1.0 | 0.00 | 0.00 | 0.00 | 63 | 1005.8 |
| 20260509010503 | 62 | 138 | 0.0 | 1.0 | 0.00 | 0.00 | 0.00 | 63 | 1005.8 |
| 20260509010018 | 62 | 91 | 0.0 | 1.0 | 0.00 | 0.00 | 0.00 | 62 | 1005.8 |
| 20260509010003 | 74 | 158 | 1.0 | 4.0 | 0.00 | 0.01 | 0.01 | 30 | 1009.2 |
| 20260509005504 | 62 | 115 | 0.0 | 1.0 | 0.00 | 0.00 | 0.00 | 61 | 1005.9 |
| 20260509005006 | 63 | 103 | 0.0 | 2.0 | 0.00 | 0.00 | 0.00 | 60 | 1005.8 |
| 20260509004608 | 74 | 161 | 0.0 | 2.0 | 0.00 | 0.01 | 0.01 | 30 | 1009.2 |
| 20260509004534 | 63 | 101 | 0.0 | 2.0 | 0.00 | 0.00 | 0.00 | 60 | 1005.8 |
| 20260509004007 | 64 | 93 | 0.0 | 2.0 | 0.00 | 0.00 | 0.00 | 58 | 1005.8 |
| 20260509003503 | 64 | 86 | 0.0 | 2.0 | 0.00 | 0.00 | 0.00 | 58 | 1005.8 |
| 20260509003059 | 74 | 184 | 0.0 | 3.0 | 0.00 | 0.01 | 0.01 | 29 | 1009.1 |
| 20260509003008 | 64 | 183 | 0.0 | 2.0 | 0.00 | 0.00 | 0.00 | 58 | 1005.9 |
| 20260509002503 | 64 | 169 | 0.0 | 3.0 | 0.00 | 0.00 | 0.00 | 59 | 1005.8 |
| 20260509002005 | 64 | 97 | 1.0 | 3.0 | 0.00 | 0.00 | 0.00 | 59 | 1005.8 |
| 20260509001556 | 75 | 134 | 0.0 | 4.0 | 0.00 | 0.01 | 0.01 | 27 | 1009.0 |
| 20260509001511 | 64 | 83 | 0.0 | 2.0 | 0.00 | 0.00 | 0.00 | 58 | 1005.9 |
| 20260509001003 | 64 | 99 | 0.0 | 2.0 | 0.00 | 0.00 | 0.00 | 58 | 1005.9 |
| 20260509000503 | 64 | 160 | 0.0 | 2.0 | 0.00 | 0.00 | 0.00 | 59 | 1005.9 |
| 20260509000052 | 76 | 160 | 1.0 | 5.0 | 0.00 | 0.01 | 0.01 | 27 | 1009.1 |
| 20260509000029 | 64 | 153 | 0.0 | 3.0 | 0.00 | 0.00 | 0.00 | 58 | 1005.9 |
| 20260508235507 | 64 | 94 | 0.0 | 3.0 | 0.00 | 0.00 | 0.00 | 58 | 1005.9 |
| 20260508235007 | 64 | 104 | 0.0 | 2.0 | 0.00 | 0.00 | 0.00 | 58 | 1005.8 |
| 20260508234553 | 76 | 153 | 0.0 | 4.0 | 0.00 | 0.01 | 0.01 | 26 | 1009.3 |
| 20260508234519 | 64 | 112 | 0.0 | 2.0 | 0.00 | 0.00 | 0.00 | 58 | 1006.0 |
| 20260508234006 | 65 | 217 | 0.0 | 3.0 | 0.00 | 0.00 | 0.00 | 58 | 1006.0 |
| 20260508233509 | 65 | 65 | 0.0 | 4.0 | 0.00 | 0.00 | 0.00 | 58 | 1005.9 |
| 20260508233051 | 76 | 159 | 0.0 | 5.0 | 0.00 | 0.01 | 0.01 | 27 | 1009.2 |
| 20260508233024 | 65 | 92 | 1.0 | 6.0 | 0.00 | 0.00 | 0.00 | 57 | 1006.0 |
| 20260508232507 | 66 | 86 | 0.0 | 6.0 | 0.00 | 0.00 | 0.00 | 57 | 1006.1 |
| 20260508232003 | 67 | 86 | 1.0 | 3.0 | 0.00 | 0.00 | 0.00 | 55 | 1006.0 |
| 20260508231546 | 75 | 186 | 1.0 | 11.0 | 0.00 | 0.01 | 0.01 | 26 | 1009.4 |
| 20260508231510 | 67 | 183 | 0.0 | 2.0 | 0.00 | 0.00 | 0.00 | 55 | 1006.0 |
| 20260508231005 | 67 | 95 | 0.0 | 4.0 | 0.00 | 0.00 | 0.00 | 54 | 1006.1 |
| 20260508230503 | 67 | 92 | 0.0 | 4.0 | 0.00 | 0.00 | 0.00 | 52 | 1006.2 |
| 20260508230042 | 76 | 122 | 1.0 | 11.0 | 0.00 | 0.01 | 0.01 | 23 | 1009.5 |
| 20260508230014 | 68 | 342 | 0.0 | 3.0 | 0.00 | 0.00 | 0.00 | 53 | 1006.2 |
| 20260508225504 | 68 | 309 | 0.0 | 4.0 | 0.00 | 0.00 | 0.00 | 52 | 1006.2 |
| 20260508225008 | 68 | 37 | 1.0 | 4.0 | 0.00 | 0.00 | 0.00 | 53 | 1006.2 |
| 20260508224539 | 78 | 139 | 2.0 | 12.0 | 0.00 | 0.01 | 0.01 | 21 | 1009.3 |
| 20260508224524 | 69 | 248 | 1.0 | 4.0 | 0.00 | 0.00 | 0.00 | 53 | 1006.2 |
| 20260508224007 | 69 | 76 | 0.0 | 5.0 | 0.00 | 0.00 | 0.00 | 51 | 1006.2 |
| 20260508223507 | 69 | 97 | 0.0 | 5.0 | 0.00 | 0.00 | 0.00 | 46 | 1006.5 |
| 20260508223040 | 77 | 219 | 3.0 | 10.0 | 0.00 | 0.01 | 0.01 | 21 | 1009.4 |
| 20260508223029 | 69 | 207 | 1.0 | 7.0 | 0.00 | 0.00 | 0.00 | 43 | 1006.3 |
| 20260508222505 | 68 | 234 | 4.0 | 8.0 | 0.00 | 0.00 | 0.00 | 45 | 1006.3 |
| 20260508222009 | 68 | 212 | 1.0 | 8.0 | 0.00 | 0.00 | 0.00 | 50 | 1006.5 |
| 20260508221532 | 77 | 177 | 4.0 | 11.0 | 0.00 | 0.01 | 0.01 | 22 | 1009.4 |
| 20260508221526 | 68 | 101 | 0.0 | 3.0 | 0.00 | 0.00 | 0.00 | 53 | 1006.4 |
| 20260508221004 | 68 | 113 | 0.0 | 3.0 | 0.00 | 0.00 | 0.00 | 53 | 1006.4 |
| 20260508220503 | 67 | 248 | 0.0 | 3.0 | 0.00 | 0.00 | 0.00 | 53 | 1006.5 |
| 20260508220027 | 77 | 158 | 4.0 | 10.0 | 0.00 | 0.01 | 0.01 | 20 | 1009.6 |
| 20260508220011 | 67 | 95 | 1.0 | 3.0 | 0.00 | 0.00 | 0.00 | 53 | 1006.4 |
| 20260508215504 | 67 | 91 | 0.0 | 2.0 | 0.00 | 0.01 | 0.00 | 52 | 1006.5 |
| 20260508215004 | 67 | 157 | 0.0 | 3.0 | 0.00 | 0.01 | 0.00 | 45 | 1006.6 |
| 20260508214522 | 76 | 186 | 2.0 | 12.0 | 0.00 | 0.01 | 0.01 | 24 | 1009.8 |
| 20260508214517 | 67 | 200 | 1.0 | 3.0 | 0.00 | 0.01 | 0.00 | 42 | 1006.6 |
| 20260508214003 | 66 | 177 | 0.0 | 4.0 | 0.00 | 0.01 | 0.00 | 43 | 1006.7 |
| 20260508213503 | 66 | 212 | 1.0 | 4.0 | 0.00 | 0.01 | 0.00 | 42 | 1006.6 |
| 20260508213024 | 66 | 248 | 0.0 | 2.0 | 0.00 | 0.01 | 0.00 | 42 | 1006.6 |
| 20260508213017 | 75 | 132 | 7.0 | 12.0 | 0.00 | 0.01 | 0.01 | 24 | 1010.0 |
| 20260508212509 | 66 | 184 | 0.0 | 3.0 | 0.00 | 0.01 | 0.00 | 43 | 1006.6 |
| 20260508212007 | 66 | 266 | 1.0 | 3.0 | 0.00 | 0.01 | 0.00 | 42 | 1006.7 |
| 20260508211526 | 66 | 199 | 0.0 | 6.0 | 0.00 | 0.02 | 0.00 | 42 | 1006.7 |
| 20260508211516 | 75 | 98 | 8.0 | 12.0 | 0.00 | 0.01 | 0.01 | 25 | 1010.3 |
| 20260508211009 | 66 | 188 | 2.0 | 6.0 | 0.00 | 0.02 | 0.00 | 43 | 1006.7 |
| 20260508210507 | 66 | 299 | 0.0 | 4.0 | 0.00 | 0.02 | 0.00 | 42 | 1006.5 |
| 20260508210027 | 67 | 257 | 2.0 | 4.0 | 0.00 | 0.02 | 0.00 | 43 | 1006.5 |
| 20260508210008 | 74 | 134 | 3.0 | 11.0 | 0.00 | 0.01 | 0.01 | 25 | 1010.8 |
| 20260508205506 | 67 | 302 | 1.0 | 6.0 | 0.00 | 0.02 | 0.00 | 43 | 1006.8 |
| 20260508205003 | 67 | 225 | 2.0 | 8.0 | 0.00 | 0.02 | 0.00 | 42 | 1006.9 |
| 20260508204514 | 67 | 223 | 3.0 | 8.0 | 0.00 | 0.02 | 0.00 | 43 | 1006.9 |
| 20260508204505 | 74 | 134 | 6.0 | 10.0 | 0.00 | 0.01 | 0.01 | 25 | 1011.0 |
| 20260508204003 | 67 | 189 | 2.0 | 7.0 | 0.00 | 0.02 | 0.00 | 43 | 1007.0 |
| 20260508203507 | 67 | 204 | 2.0 | 7.0 | 0.00 | 0.02 | 0.00 | 41 | 1007.0 |
| 20260508203107 | 74 | 131 | 1.0 | 10.0 | 0.00 | 0.01 | 0.01 | 24 | 1011.2 |
| 20260508203020 | 67 | 244 | 2.0 | 6.0 | 0.00 | 0.02 | 0.00 | 42 | 1007.1 |
| 20260508202508 | 67 | 208 | 3.0 | 7.0 | 0.00 | 0.02 | 0.00 | 43 | 1007.1 |
| 20260508202007 | 67 | 229 | 2.0 | 7.0 | 0.00 | 0.02 | 0.00 | 43 | 1007.2 |
| 20260508201603 | 72 | 139 | 5.0 | 11.0 | 0.00 | 0.01 | 0.01 | 28 | 1011.3 |
| 20260508201526 | 67 | 162 | 0.0 | 5.0 | 0.00 | 0.02 | 0.00 | 43 | 1007.3 |
| 20260508201002 | 67 | 268 | 1.0 | 4.0 | 0.00 | 0.02 | 0.00 | 42 | 1007.3 |
| 20260508200503 | 67 | 175 | 1.0 | 4.0 | 0.00 | 0.02 | 0.00 | 43 | 1007.3 |
| 20260508200052 | 71 | 110 | 5.0 | 9.0 | 0.00 | 0.01 | 0.01 | 25 | 1011.8 |
| 20260508200018 | 67 | 108 | 1.0 | 3.0 | 0.00 | 0.02 | 0.00 | 43 | 1007.4 |
| 20260508195503 | 67 | 213 | 0.0 | 6.0 | 0.00 | 0.02 | 0.00 | 43 | 1007.5 |
| 20260508195004 | 67 | 82 | 2.0 | 6.0 | 0.00 | 0.02 | 0.00 | 42 | 1007.6 |
| 20260508194549 | 72 | 111 | 3.0 | 7.0 | 0.00 | 0.01 | 0.01 | 26 | 1012.0 |
| 20260508194510 | 67 | 213 | 3.0 | 6.0 | 0.00 | 0.02 | 0.00 | 42 | 1007.6 |
| 20260508194004 | 67 | 98 | 1.0 | 5.0 | 0.00 | 0.02 | 0.00 | 43 | 1007.6 |
| 20260508193505 | 67 | 71 | 0.0 | 4.0 | 0.00 | 0.02 | 0.00 | 44 | 1007.6 |
| 20260508193048 | 72 | 150 | 0.0 | 7.0 | 0.00 | 0.01 | 0.01 | 26 | 1012.3 |
| 20260508193020 | 67 | 197 | 0.0 | 4.0 | 0.00 | 0.02 | 0.00 | 44 | 1007.7 |
| 20260508192504 | 67 | 139 | 0.0 | 4.0 | 0.00 | 0.02 | 0.00 | 43 | 1007.8 |
| 20260508192009 | 67 | 267 | 1.0 | 4.0 | 0.00 | 0.02 | 0.00 | 44 | 1007.8 |
| 20260508191545 | 72 | 183 | 1.0 | 10.0 | 0.00 | 0.01 | 0.01 | 26 | 1012.1 |
| 20260508191522 | 67 | 182 | 0.0 | 4.0 | 0.00 | 0.02 | 0.00 | 45 | 1007.9 |
| 20260508191007 | 67 | 175 | 1.0 | 6.0 | 0.00 | 0.02 | 0.00 | 45 | 1007.9 |
| 20260508190508 | 67 | 101 | 0.0 | 6.0 | 0.00 | 0.02 | 0.00 | 44 | 1008.0 |
| 20260508190041 | 70 | 152 | 4.0 | 8.0 | 0.00 | 0.01 | 0.01 | 29 | 1012.1 |
| 20260508190007 | 67 | 98 | 1.0 | 5.0 | 0.00 | 0.02 | 0.00 | 45 | 1008.0 |
| 20260508185501 | 67 | 188 | 1.0 | 6.0 | 0.00 | 0.02 | 0.00 | 47 | 1008.1 |
| 20260508185004 | 67 | 148 | 1.0 | 6.0 | 0.00 | 0.02 | 0.00 | 45 | 1008.1 |
| 20260508184535 | 69 | 105 | 5.0 | 8.0 | 0.00 | 0.01 | 0.01 | 31 | 1012.3 |
| 20260508184509 | 66 | 201 | 1.0 | 6.0 | 0.00 | 0.02 | 0.00 | 48 | 1008.2 |
| 20260508184006 | 66 | 248 | 1.0 | 5.0 | 0.00 | 0.02 | 0.00 | 46 | 1008.2 |
| 20260508183503 | 66 | 177 | 2.0 | 5.0 | 0.00 | 0.02 | 0.00 | 47 | 1008.3 |
| 20260508183035 | 67 | 134 | 2.0 | 6.0 | 0.01 | 0.01 | 0.01 | 33 | 1012.9 |
| 20260508183012 | 66 | 185 | 1.0 | 6.0 | 0.00 | 0.02 | 0.00 | 47 | 1008.5 |
| 20260508182506 | 65 | 12 | 2.0 | 6.0 | 0.00 | 0.02 | 0.00 | 45 | 1008.5 |
| 20260508182003 | 65 | 236 | 2.0 | 4.0 | 0.00 | 0.02 | 0.00 | 48 | 1008.6 |
| 20260508181533 | 67 | 107 | 1.0 | 6.0 | 0.01 | 0.01 | 0.01 | 34 | 1013.3 |
| 20260508181527 | 65 | 97 | 2.0 | 4.0 | 0.00 | 0.02 | 0.00 | 53 | 1008.6 |
| 20260508181009 | 65 | 288 | 1.0 | 4.0 | 0.00 | 0.02 | 0.00 | 49 | 1008.6 |
| 20260508180509 | 65 | 173 | 1.0 | 7.0 | 0.00 | 0.02 | 0.00 | 52 | 1008.6 |
| 20260508180025 | 65 | 84 | 0.0 | 7.0 | 0.00 | 0.02 | 0.00 | 48 | 1008.8 |
| 20260508175508 | 65 | 163 | 3.0 | 6.0 | 0.00 | 0.02 | 0.00 | 51 | 1008.9 |
| 20260508175004 | 64 | 213 | 1.0 | 4.0 | 0.00 | 0.02 | 0.00 | 51 | 1008.9 |
| 20260508174521 | 67 | 141 | 2.0 | 8.0 | 0.01 | 0.01 | 0.01 | 31 | 1013.8 |
| 20260508174509 | 64 | 210 | 1.0 | 3.0 | 0.00 | 0.02 | 0.00 | 51 | 1009.0 |
| 20260508174004 | 64 | 96 | 0.0 | 6.0 | 0.00 | 0.02 | 0.00 | 49 | 1009.2 |
| 20260508173504 | 64 | 181 | 1.0 | 6.0 | 0.00 | 0.02 | 0.00 | 49 | 1009.2 |
| 20260508173022 | 67 | 114 | 5.0 | 8.0 | 0.00 | 0.00 | 0.00 | 27 | 1014.0 |
| 20260508172503 | 64 | 229 | 0.0 | 3.0 | 0.00 | 0.02 | 0.00 | 51 | 1009.4 |
| 20260508172005 | 64 | 264 | 1.0 | 7.0 | 0.00 | 0.02 | 0.00 | 50 | 1009.5 |
| 20260508171524 | 67 | 105 | 3.0 | 6.0 | 0.00 | 0.00 | 0.00 | 27 | 1014.6 |
| 20260508171004 | 63 | 83 | 0.0 | 4.0 | 0.00 | 0.02 | 0.00 | 48 | 1009.6 |
| 20260508170511 | 64 | 263 | 0.0 | 4.0 | 0.00 | 0.02 | 0.00 | 47 | 1009.8 |
| 20260508170022 | 64 | 69 | 1.0 | 4.0 | 0.00 | 0.02 | 0.00 | 45 | 1009.9 |
| 20260508170016 | 67 | 71 | 2.0 | 8.0 | 0.00 | 0.00 | 0.00 | 26 | 1014.3 |
| 20260508165507 | 63 | 194 | 0.0 | 4.0 | 0.00 | 0.02 | 0.00 | 44 | 1010.0 |
| 20260508165009 | 63 | 96 | 0.0 | 5.0 | 0.00 | 0.02 | 0.00 | 45 | 1010.0 |
| 20260508164525 | 63 | 235 | 1.0 | 6.0 | 0.00 | 0.02 | 0.00 | 44 | 1010.0 |
| 20260508164512 | 68 | 124 | 3.0 | 7.0 | 0.00 | 0.00 | 0.00 | 23 | 1014.5 |
| 20260508164008 | 63 | 84 | 1.0 | 6.0 | 0.00 | 0.02 | 0.00 | 44 | 1010.2 |
| 20260508163504 | 63 | 151 | 0.0 | 5.0 | 0.00 | 0.02 | 0.00 | 42 | 1010.3 |
| 20260508163015 | 63 | 103 | 0.0 | 4.0 | 0.00 | 0.02 | 0.00 | 42 | 1010.3 |
| 20260508163013 | 69 | 151 | 1.0 | 5.0 | 0.00 | 0.00 | 0.00 | 20 | 1014.5 |